Home   Weather   Allentown   Past weeks

Flag for USA Past Weather in Allentown, Pennsylvania, USA — Yesterday and Last 2 Weeks

Now
67 °F

Clear.


Feels Like: 67 °F
Forecast: 63 / 80 °F
Wind: No wind

Location: Lehigh Valley International Airport

Current Time: Apr 28, 2017 at 9:58:31 pm

Latest Report: Apr 28, 2017 at 8:51 pm


Visibility: 10 mi

Pressure: 30.03 "Hg

Humidity: 47%

Dew Point: 46 °F

Location of AllentownLocation

Past Weather in Allentown — Graph

°F

Allentown Temperature Yesterday

Maximum temperature yesterday: 80 °F (at 3:51 pm)
Minimum temperature yesterday: 62 °F (at 1:51 am)
Average temperature yesterday: 69 °F

High & Low Weather Summary for the Past Weeks

 TemperatureHumidityPressure
High84 °F (Apr 16, 1:51 pm)93% (Apr 17, 1:56 am)30.49 "Hg (Apr 17, 1:56 am)
Low38 °F (Apr 23, 5:51 am)19% (Apr 18, 4:51 pm)29.75 "Hg (Apr 26, 4:51 am)
Average59 °F65%30.06 "Hg
* Reported Apr 13 7:51 pm — Apr 28 7:51 pm, Allentown, Weather by CustomWeather, © 2017

Note: Actual official high and low records may vary slightly from our data, if they occured in-between our weather recording intervals... More about our weather records

Advertising

Allentown Weather History for the Previous 24 Hours

Scroll right to see more
 ConditionsComfort  
Time TempWeatherWind HumidityBarometerVisibility
7:51 pm
Fri, Apr 28
71 °FSunny.5 mph41%30.01 "Hg10 mi
6:51 pm76 °FSunny.10 mph33%30.00 "Hg10 mi
5:51 pm79 °FSunny.10 mph32%29.99 "Hg10 mi
4:51 pm81 °FSunny.12 mph30%29.99 "Hg10 mi
3:51 pm79 °FSunny.13 mph35%30.00 "Hg10 mi
2:51 pm81 °FSunny.12 mph34%30.01 "Hg10 mi
1:51 pm80 °FSunny.9 mph30%29.99 "Hg10 mi
12:51 pm79 °FSunny.7 mph34%30.00 "Hg10 mi
11:51 am77 °FSunny.6 mph45%30.01 "Hg10 mi
10:51 am76 °FSunny.10 mph40%29.99 "Hg10 mi
9:51 am73 °FSunny.9 mph57%29.98 "Hg10 mi
8:51 am69 °FSunny.7 mph76%29.98 "Hg10 mi
7:51 am62 °FFog.3 mph90%29.96 "Hg6 mi
6:51 am58 °FFog.No wind93%29.93 "Hg2 mi
6:31 am57 °FFog.No wind93%29.93 "Hg3 mi
5:51 am58 °FFog.5 mph90%29.90 "Hg4 mi
4:51 am59 °FPassing clouds.3 mph90%29.89 "Hg7 mi
3:51 am60 °FFog.No wind90%29.86 "Hg6 mi
2:51 am61 °FClear.5 mph87%29.84 "Hg10 mi
1:51 am64 °FClear.7 mph81%29.83 "Hg10 mi
12:51 am64 °FClear.6 mph84%29.83 "Hg10 mi
11:51 pm
Thu, Apr 27
66 °FPassing clouds.7 mph81%29.83 "Hg10 mi
10:51 pm68 °FOvercast.6 mph78%29.83 "Hg10 mi
9:51 pm69 °FPassing clouds.7 mph76%29.83 "Hg10 mi
Weather by CustomWeather, © 2017

See weather overviewHow to use our weather pages